sat.trackr.live / text

‹ back to catalog

SITRO-AIS 19

NORAD 61759 · 2024-199AA

PAYLOAD ACTIVE UNKNOWN

§ Identity

Operator
Country
CIS
Launch date
2024-11-04
Launch site
VOSTO
Launch vehicle
Mass (kg)
RCS (m²)

External: N2YO · Heavens-Above · Gunter

§ Orbital elements

Epoch: 2026-09-22T21:20:05.047584Z

Period
96.11 min
Inclination
97.3183°
Eccentricity
0.0007925
Mean motion
14.98323687 rev/d
Perigee alt
566.6 km
Apogee alt
577.6 km
Semi-major
6,950.2 km
B*
2.0102e-4
RAAN
99.4172°
Arg perigee
98.1062°
Mean anomaly
262.1061°
Rev number
14,976

§ Raw data

SITRO-AIS 191 61759U 24199AA  26265.88894731  .00002341  00000+0  20102-3 0  99992 61759  97.3183  99.4172 0007925  98.1062 262.1061 14.98323687149768

JSON: /api/v1/satellites/61759 · /tle

For live sub-satellite position, see the globe view (requires WebGL).

§ Visibility from observer

Set your observer location to see the next 7 days of passes ≥ 10°. The values pass through the URL so the page stays shareable.

No JS? Fill the form by hand. The geolocation button needs JavaScript.

§ Radio — SatNOGS DB

ModeDescriptionDownlinkUplink
GMSK USP Mode U - GMSK2k4 - USP 401.135 MHz

1 transmitter · refreshed weekly from db.satnogs.org